Location: ??????
(38.0677°N, 22.9870°E)
Time: 14:52:25
(UTC+00:00)

CZ-2C R/B - Pass Details

Date: 04 August 2024
Orbit: 666 x 777 km, 98.4° (Epoch: 09 September)

Event Time Altitude Azimuth Distance (km) Brightness Sun altitude
Rises 02:08:17 0° 12° (NNE) 3,247 6.5 -15.4°
Reaches altitude 10° 02:10:35 10° 11° (NNE) 2,325 5.7 -15.0°
Maximum altitude 02:15:45 84° 285° (WNW) 787 2.5 -14.2°
Enters shadow 02:20:36 12° 197° (SSW) 2,204 4.4 -13.4°
